Location: Twentynine Palms Airport
(34.1316°N, 115.9458°W)
Time: 00:13:13
(UTC-07:00)

Amateur Radio Satellites - All Passes

Search period start: 28 August 2016 23:43
Search period end: 29 August 2016 23:43
Location: Twentynine Palms Airport, 34.1316°N, 115.9458°W

Satellite Date Start Highest point End Downlink Frequencies (MHz)
Time Altitude Azimuth
UKube-1 28 Aug 23:44:25 23:48:17 34° 72° (ENE) 23:52:12 .
RS-15 29 Aug 00:02:55 00:13:05 40° 106° (ESE) 00:23:43 29.354- 29.394
50 SAT 29 Aug 00:07:56 00:11:24 50° 260° (W) 00:14:54 437.505
AUBIESAT-1 29 Aug 00:08:04 00:11:07 17° 262° (W) 00:14:12 437.475
UNISAT 6 29 Aug 00:13:13 00:15:30 14° 293° (WNW) 00:17:47 437.425
M-CUBED/EXP-1 PRIME 29 Aug 00:16:26 00:18:10 12° 264° (W) 00:19:55 437.505
BUGSAT 1 29 Aug 00:18:13 00:21:41 26° 97° (E) 00:25:07 437.445
QB50P1 29 Aug 00:27:32 00:31:45 73° 283° (WNW) 00:35:54 145.935-145.965
CUBEBUG 1 29 Aug 00:28:42 00:32:29 28° 263° (W) 00:36:17 437.445
VELOX 1 29 Aug 00:30:03 00:34:04 33° 262° (W) 00:38:07 145.980
O/OREOS (USA 219) 29 Aug 00:32:57 00:37:05 33° 257° (WSW) 00:41:12 437.305
POPSAT HIP 1 29 Aug 00:37:45 00:41:53 55° 285° (WNW) 00:45:58 437.405
SPROUT 29 Aug 00:39:05 00:43:18 54° 260° (W) 00:47:32 437.525
SO-50 29 Aug 00:40:42 00:43:30 15° 312° (NW) 00:46:18 436.795
DX 1 29 Aug 00:42:30 00:46:30 35° 262° (W) 00:50:31 434.975-435.025
DANDE 29 Aug 00:47:25 00:49:13 17° 285° (WNW) 00:51:05 436.750
JAS-2 29 Aug 00:51:05 00:58:10 79° 103° (ESE) 01:05:53 435.910
GONETS M04 29 Aug 00:52:41 00:59:34 26° 277° (W) 01:06:27
TISAT 1 29 Aug 00:53:09 00:57:06 40° 73° (ENE) 01:01:06 437.305
Cosmos 2499 29 Aug 00:59:27 01:04:46 24° 275° (W) 01:10:11 435.465 / 435.565
DUCHIFAT 1 29 Aug 01:04:09 01:07:48 30° 288° (WNW) 01:11:25 145.980
SWISSCUBE 29 Aug 01:08:19 01:10:21 13° 65° (ENE) 01:12:22 437.505
QB50P2 29 Aug 01:09:17 01:12:31 22° 290° (WNW) 01:15:44 145.880/145.840
POLYITAN 1 29 Aug 01:11:49 01:15:01 21° 290° (WNW) 01:18:12 437.675
PHONESAT 2.4 29 Aug 01:16:03 01:19:03 75° 335° (NNW) 01:22:04 2401.200-2431.200
Oscar 19 29 Aug 01:17:22 01:21:26 23° 95° (E) 01:25:28 437.125/150
NANOSAT C BR1 29 Aug 01:19:16 01:22:14 19° 291° (WNW) 01:25:12 145.865
UKube-1 29 Aug 01:21:37 01:24:22 17° 265° (W) 01:27:10 .
BEESAT 29 Aug 01:24:08 01:27:10 17° 67° (ENE) 01:30:14 436.000
BUGSAT 1 29 Aug 01:53:56 01:56:52 19° 291° (WNW) 01:59:45 437.445
ITUPSAT 1 29 Aug 02:10:43 02:15:21 53° 74° (ENE) 02:19:59 437.325
RS-15 29 Aug 02:13:51 02:25:02 55° 306° (NW) 02:36:53 29.354- 29.394
TISAT 1 29 Aug 02:30:46 02:32:53 13° 267° (W) 02:35:01 437.305
ITAMSAT 1 29 Aug 02:35:30 02:38:38 16° 94° (E) 02:41:44 435.822/435.867
JAS-2 29 Aug 02:38:04 02:42:31 18° 296° (WNW) 02:47:14 435.910
Gurwin Techsat 1B 29 Aug 02:38:41 02:43:59 68° 102° (ESE) 02:49:15 435.225
SWISSCUBE 29 Aug 02:42:56 02:47:36 58° 259° (W) 02:52:17 437.505
KKS-1 29 Aug 02:45:55 02:47:45 12° 65° (ENE) 02:49:35 437.445
PHONESAT 2.4 29 Aug 02:53:07 02:55:41 25° 353° (N) 02:58:14 2401.200-2431.200
AO-7 29 Aug 02:55:50 03:00:35 16° 93° (E) 03:05:17 29.400- 29.500
Oscar 19 29 Aug 02:56:03 03:00:45 35° 290° (WNW) 03:05:26 437.125/150
BEESAT 29 Aug 03:00:06 03:04:35 41° 261° (W) 03:09:06 436.000
MOZHAYETS 4 29 Aug 03:00:43 03:04:20 24° 70° (ENE) 03:07:58
STARS 29 Aug 03:17:20 03:19:23 13° 66° (ENE) 03:21:26 437.465
ITUPSAT 1 29 Aug 03:51:26 03:53:26 12° 267° (W) 03:55:27 437.325
ITAMSAT 1 29 Aug 04:13:19 04:18:18 49° 288° (WNW) 04:23:17 435.822/435.867
KKS-1 29 Aug 04:19:26 04:23:48 53° 260° (W) 04:28:12 437.445
Gurwin Techsat 1B 29 Aug 04:20:53 04:23:18 13° 297° (WNW) 04:25:41 435.225
CUBESAT XI-V 29 Aug 04:24:58 04:28:35 23° 70° (ENE) 04:32:14 437.345
PHONESAT 2.4 29 Aug 04:29:54 04:32:32 27° 10° (N) 04:35:08 2401.200-2431.200
Cosmos 2491 29 Aug 04:31:06 04:38:55 34° 74° (ENE) 04:46:41 435.465 / 435.565
RS-15 29 Aug 04:33:54 04:41:14 18° 335° (NNW) 04:48:45 29.354- 29.394
AO-85 29 Aug 04:35:58 04:41:14 61° 116° (ESE) 04:46:18 145.980
MOZHAYETS 4 29 Aug 04:37:31 04:41:21 26° 264° (W) 04:45:11
AO-7 29 Aug 04:45:45 04:54:05 84° 289° (WNW) 05:02:23 29.400- 29.500
STARS 29 Aug 04:50:59 04:55:17 48° 260° (W) 04:59:35 437.465
BRITE-PL 29 Aug 05:01:38 05:03:29 12° 89° (E) 05:05:18 437.365/2234.400
HORYU 2 29 Aug 05:36:17 05:40:39 59° 101° (ESE) 05:44:59 437.375
YUBILEINY 29 Aug 05:39:13 05:47:27 46° 88° (E) 05:55:41 435.215
CUBESAT XI-V 29 Aug 06:01:53 06:05:47 27° 264° (W) 06:09:45 437.345
GOMX 1 29 Aug 06:05:27 06:09:32 22° 93° (E) 06:13:24 467.674
PHONESAT 2.4 29 Aug 06:06:05 06:09:05 86° 203° (SSW) 06:12:04 2401.200-2431.200
AO-85 29 Aug 06:18:33 06:22:02 18° 310° (NW) 06:25:25 145.980
NOAA 18 29 Aug 06:20:03 06:24:31 25° 96° (E) 06:28:56 137.9125
STRAND 1 29 Aug 06:24:33 06:28:36 24° 68° (ENE) 06:32:40 437.568
Cosmos 2491 29 Aug 06:27:34 06:35:49 46° 271° (W) 06:44:03 435.465 / 435.565
BRITE-PL 29 Aug 06:36:45 06:42:28 77° 284° (WNW) 06:47:57 437.365/2234.400
LilacSat-2 29 Aug 06:40:53 06:44:33 48° 99° (E) 06:48:11 437.200
AO-7 29 Aug 06:41:01 06:45:39 16° 306° (NW) 06:50:15 29.400- 29.500
Cosmos 2504 29 Aug 06:44:55 06:52:47 43° 89° (E) 07:00:10 435.465 / 435.565
Cubesat XI-IV 29 Aug 06:53:51 06:59:08 64° 102° (ESE) 07:04:24 437.490
RS-15 29 Aug 06:55:44 07:01:25 14° 14° (NNE) 07:07:06 29.354- 29.394
NOAA 15 29 Aug 07:00:49 07:06:10 83° 283° (WNW) 07:11:28 137.62
HO-68 29 Aug 07:04:14 07:05:18 10° 90° (E) 07:06:23 435.675
CUTE-I 29 Aug 07:05:07 07:10:27 84° 101° (E) 07:15:46 437.470
HORYU 2 29 Aug 07:15:39 07:16:39 11° 295° (WNW) 07:17:38 437.375
SO-50 29 Aug 07:33:42 07:37:11 21° 51° (NE) 07:40:36 436.795
YUBILEINY 29 Aug 07:36:31 07:44:18 34° 285° (WNW) 07:52:08 435.215
ISS 29 Aug 07:40:03 07:43:19 83° 132° (SE) 07:46:36 145.825
DOVE 4 29 Aug 07:40:25 07:45:25 86° 283° (WNW) 07:50:04 437.250
GOMX 1 29 Aug 07:42:46 07:47:40 37° 289° (WNW) 07:52:18 467.674
PHONESAT 2.4 29 Aug 07:44:01 07:45:04 11° 218° (SW) 07:46:06 2401.200-2431.200
SEEDS 29 Aug 07:59:11 08:02:00 17° 94° (E) 08:04:49 437.485
NOAA 18 29 Aug 08:00:15 08:05:10 35° 291° (WNW) 08:10:02 137.9125
STRAND 1 29 Aug 08:03:02 08:07:35 32° 262° (W) 08:12:08 437.568
CINEMA 3 29 Aug 08:08:36 08:12:52 45° 98° (E) 08:16:56 145.822/145.860
PRISM 29 Aug 08:08:50 08:12:17 27° 71° (ENE) 08:15:47 437.425
CUBEBUG 2 29 Aug 08:16:27 08:18:15 12° 93° (E) 08:20:02 437.445
CANX-2 29 Aug 08:23:13 08:27:25 61° 100° (E) 08:31:37 2200.000
AAUSAT CUBESAT 2 29 Aug 08:25:06 08:28:01 18° 95° (E) 08:30:55 437.432
CUTE 1.7 + AOD 2 29 Aug 08:28:57 08:33:09 61° 100° (E) 08:37:21 437.475
CUSAT 1 29 Aug 08:32:26 08:33:12 10° 68° (ENE) 08:33:59 437.405
COMPASS 1 29 Aug 08:34:17 08:38:00 31° 97° (E) 08:41:44 437.405
Cubesat XI-IV 29 Aug 08:35:57 08:38:36 14° 296° (WNW) 08:41:15 437.490
Cosmos 2504 29 Aug 08:38:41 08:46:08 34° 284° (WNW) 08:53:12 435.465 / 435.565
AIST 1 29 Aug 08:42:23 08:46:24 39° 92° (E) 08:50:29
BEESAT 2 29 Aug 08:46:24 08:49:31 23° 111° (ESE) 08:52:40 435.950
HO-68 29 Aug 08:46:40 08:53:51 82° 104° (ESE) 09:01:01 435.675
CUTE-I 29 Aug 08:48:46 08:49:43 10° 298° (WNW) 08:50:41 437.470
BEESAT 3 29 Aug 08:59:57 09:03:49 76° 118° (ESE) 09:07:44 437.485
TIGRISAT 29 Aug 09:04:01 09:05:10 11° 66° (ENE) 09:06:20 435.000
RS-15 29 Aug 09:08:03 09:19:15 38° 46° (NE) 09:30:14 29.354- 29.394
SO-50 29 Aug 09:13:36 09:17:44 35° 247° (WSW) 09:21:46 436.795
ISS 29 Aug 09:18:44 09:20:09 12° 332° (NNW) 09:21:35 145.825
JUGNU 29 Aug 09:20:02 09:22:35 13° 166° (SSE) 09:25:07 437.505
Oscar 11 29 Aug 09:22:38 09:26:34 33° 98° (E) 09:30:28 145.826/435.025
UNISAT 6 29 Aug 09:30:29 09:34:10 24° 70° (ENE) 09:37:48 437.425
FUNcube-1 29 Aug 09:32:34 09:36:27 39° 99° (E) 09:40:19 145.935
SEEDS 29 Aug 09:34:01 09:37:42 30° 288° (WNW) 09:41:25 437.485
DANDE 29 Aug 09:42:59 09:46:31 15° 75° (ENE) 09:50:28 436.750
UWE-3 29 Aug 09:44:35 09:48:44 77° 285° (WNW) 09:52:51 435.000/436.395/437.385
PRISM 29 Aug 09:44:42 09:47:33 18° 265° (W) 09:50:26 437.425
CINEMA 3 29 Aug 09:47:31 09:49:30 13° 294° (WNW) 09:51:28 145.822/145.860
DELFI C3 29 Aug 09:48:03 09:51:23 25° 97° (E) 09:54:42 145.870
CUBEBUG 2 29 Aug 09:51:07 09:55:03 39° 286° (WNW) 09:58:54 437.445
ZACube-1 29 Aug 09:54:55 09:59:04 85° 105° (ESE) 10:03:12 437.345
AAUSAT CUBESAT 2 29 Aug 09:59:54 10:03:28 28° 288° (WNW) 10:07:03 437.432
GONETS M04 29 Aug 10:03:04 10:04:01 10° 76° (ENE) 10:04:58
ANTELSAT 29 Aug 10:06:22 10:10:55 62° 75° (ENE) 10:15:23 437.575/2403.000
CUSAT 1 29 Aug 10:08:59 10:15:52 69° 81° (E) 10:23:46 437.405
COMPASS 1 29 Aug 10:10:32 10:13:17 17° 291° (WNW) 10:16:04 437.405
AIST 1 29 Aug 10:21:57 10:24:10 14° 287° (WNW) 10:26:23
BEESAT 2 29 Aug 10:24:00 10:27:13 23° 306° (NW) 10:30:28 435.950
QB50P2 29 Aug 10:24:03 10:25:50 12° 67° (ENE) 10:27:37 145.880/145.840
HUMSAT D 29 Aug 10:25:08 10:28:49 32° 98° (E) 10:32:30 437.325/437.525
POLYITAN 1 29 Aug 10:26:30 10:28:21 13° 67° (ENE) 10:30:11 437.675
NANOSAT C BR1 29 Aug 10:32:55 10:35:07 14° 67° (ENE) 10:37:19 145.865
HO-68 29 Aug 10:36:29 10:40:41 17° 301° (WNW) 10:44:53 435.675
TIGRISAT 29 Aug 10:36:45 10:41:19 62° 259° (W) 10:45:49 435.000
Oscar 11 29 Aug 10:59:35 11:02:24 17° 291° (WNW) 11:05:12 145.826/435.025
JAS-2 29 Aug 11:02:37 11:06:03 18° 64° (ENE) 11:09:35 435.910
BUGSAT 1 29 Aug 11:05:46 11:07:38 13° 67° (ENE) 11:09:31 437.445
JUGNU 29 Aug 11:06:46 11:10:54 19° 176° (S) 11:15:00 437.505
UNISAT 6 29 Aug 11:06:50 11:10:43 26° 263° (W) 11:14:33 437.425
FUNcube-1 29 Aug 11:10:21 11:12:19 13° 292° (WNW) 11:14:16 145.935
PCSat 29 Aug 11:10:59 11:16:21 70° 113° (ESE) 11:21:45 145.827
AIST 2 29 Aug 11:13:09 11:16:54 36° 113° (ESE) 11:20:41 435.215
QB50P1 29 Aug 11:15:55 11:20:02 48° 74° (ENE) 11:24:09 145.935-145.965
RS-15 29 Aug 11:20:21 11:32:30 66° 248° (WSW) 11:44:20 29.354- 29.394
DELFI C3 29 Aug 11:23:09 11:26:02 19° 290° (WNW) 11:28:56 145.870
DANDE 29 Aug 11:23:21 11:29:18 75° 263° (W) 11:36:54 436.750
POPSAT HIP 1 29 Aug 11:26:00 11:30:14 64° 76° (ENE) 11:34:28 437.405
ESTCUBE 1 29 Aug 11:36:11 11:40:17 33° 98° (E) 11:44:22 437.505/2401.250
Cosmos 2499 29 Aug 11:36:45 11:44:29 46° 90° (E) 11:51:41 435.465 / 435.565
AISAT 29 Aug 11:37:22 11:40:21 18° 94° (E) 11:43:19 437.250
50 SAT 29 Aug 11:40:42 11:42:56 15° 95° (E) 11:45:11 437.505
AUBIESAT-1 29 Aug 11:49:33 11:53:20 48° 104° (ESE) 11:56:49 437.475
GONETS M04 29 Aug 11:50:29 11:59:10 74° 94° (E) 12:07:57
DUCHIFAT 1 29 Aug 11:51:22 11:55:35 69° 258° (WSW) 11:59:50 145.980
CUSAT 1 29 Aug 11:52:31 11:57:28 21° 272° (W) 12:02:51 437.405
M-CUBED/EXP-1 PRIME 29 Aug 11:56:52 12:00:51 81° 107° (ESE) 12:04:30 437.505
QB50P2 29 Aug 11:57:03 12:01:11 47° 260° (W) 12:05:19 145.880/145.840
POLYITAN 1 29 Aug 11:59:34 12:03:41 46° 260° (W) 12:07:49 437.675
HUMSAT D 29 Aug 12:01:40 12:04:09 16° 291° (WNW) 12:06:38 437.325/437.525
NANOSAT C BR1 29 Aug 12:06:25 12:10:26 41° 261° (W) 12:14:29 145.865
CUBEBUG 1 29 Aug 12:20:13 12:24:38 70° 101° (ESE) 12:29:00 437.445
VELOX 1 29 Aug 12:23:19 12:27:44 59° 101° (E) 12:32:06 145.980
SPROUT 29 Aug 12:28:54 12:32:44 32° 97° (E) 12:36:32 437.525
Oscar 19 29 Aug 12:30:45 12:34:47 23° 68° (ENE) 12:38:49 437.125/150
DX 1 29 Aug 12:33:57 12:38:13 50° 100° (E) 12:42:27 434.975-435.025
BUGSAT 1 29 Aug 12:38:30 12:42:34 45° 260° (W) 12:46:40 437.445
JAS-2 29 Aug 12:45:46 12:50:41 45° 261° (W) 12:55:53 435.910
SRMSAT 29 Aug 12:47:45 12:51:31 17° 172° (S) 12:55:16 437.500
AIST 2 29 Aug 12:52:43 12:55:29 17° 309° (NW) 12:58:16 435.215
QB50P1 29 Aug 12:54:46 12:56:01 11° 268° (W) 12:57:17 145.935-145.965
JUGNU 29 Aug 12:55:13 12:59:14 19° 186° (S) 13:03:15 437.505
PCSat 29 Aug 12:57:06 13:00:15 15° 310° (NW) 13:03:25 145.827
O/OREOS (USA 219) 29 Aug 13:02:01 13:06:14 42° 105° (ESE) 13:10:29 437.305
UKube-1 29 Aug 13:10:30 13:14:51 76° 285° (WNW) 13:19:10 .
AISAT 29 Aug 13:12:51 13:16:52 34° 288° (WNW) 13:20:51 437.250
AO-85 29 Aug 13:13:02 13:15:44 16° 49° (NE) 13:18:18 145.980
50 SAT 29 Aug 13:13:27 13:16:28 25° 288° (WNW) 13:19:29 437.505
ESTCUBE 1 29 Aug 13:13:36 13:16:49 19° 292° (WNW) 13:20:02 437.505/2401.250
AUBIESAT-1 29 Aug 13:26:43 13:27:14 10° 300° (WNW) 13:27:43 437.475
Cosmos 2499 29 Aug 13:30:46 13:37:38 30° 285° (WNW) 13:44:09 435.465 / 435.565
RS-15 29 Aug 13:40:26 13:42:30 11° 265° (W) 13:44:34 29.354- 29.394
ITAMSAT 1 29 Aug 13:50:04 13:53:29 18° 66° (ENE) 13:56:53 435.822/435.867
GONETS M04 29 Aug 13:50:47 13:56:47 20° 291° (WNW) 14:02:52
AO-7 29 Aug 13:51:28 13:56:46 19° 56° (NE) 14:02:03 29.400- 29.500
Gurwin Techsat 1B 29 Aug 13:55:56 14:01:13 74° 75° (ENE) 14:06:32 435.225
VELOX 1 29 Aug 14:02:25 14:03:38 11° 295° (WNW) 14:04:50 145.980
SPROUT 29 Aug 14:05:35 14:08:24 17° 292° (WNW) 14:11:11 437.525
Oscar 19 29 Aug 14:09:10 14:13:51 35° 262° (W) 14:18:34 437.125/150
ISS 29 Aug 14:11:22 14:13:47 19° 33° (NNE) 14:16:12 145.825
DX 1 29 Aug 14:12:07 14:13:55 12° 294° (WNW) 14:15:44 434.975-435.025
ITUPSAT 1 29 Aug 14:15:53 14:19:12 19° 95° (E) 14:22:30 437.325
TISAT 1 29 Aug 14:15:56 14:20:06 65° 284° (WNW) 14:24:13 437.305
SRMSAT 29 Aug 14:35:51 14:40:00 20° 182° (S) 14:44:09 437.500
O/OREOS (USA 219) 29 Aug 14:43:09 14:45:50 15° 300° (WNW) 14:48:32 437.305
JUGNU 29 Aug 14:45:34 14:47:31 12° 195° (SSW) 14:49:28 437.505
SWISSCUBE 29 Aug 14:46:45 14:51:21 47° 100° (E) 14:55:56 437.505
AO-85 29 Aug 14:52:32 14:56:19 36° 247° (WSW) 14:59:53 145.980
BEESAT 29 Aug 15:03:32 15:08:16 66° 101° (ESE) 15:13:00 436.000
ITAMSAT 1 29 Aug 15:27:33 15:32:32 47° 260° (W) 15:37:32 435.822/435.867
AO-7 29 Aug 15:40:05 15:48:28 87° 253° (WSW) 15:56:52 29.400- 29.500
Gurwin Techsat 1B 29 Aug 15:40:38 15:41:37 10° 269° (W) 15:42:35 435.225
ISS 29 Aug 15:47:17 15:50:21 37° 228° (SW) 15:53:24 145.825
ITUPSAT 1 29 Aug 15:52:43 15:57:05 37° 289° (WNW) 16:01:27 437.325
YUBILEINY 29 Aug 15:55:39 16:01:03 17° 67° (ENE) 16:06:24 435.215
KKS-1 29 Aug 16:14:09 16:18:18 37° 99° (E) 16:22:24 437.445
SRMSAT 29 Aug 16:25:21 16:28:28 15° 192° (SSW) 16:31:35 437.500
SWISSCUBE 29 Aug 16:25:58 16:28:42 15° 294° (WNW) 16:31:26 437.505
HORYU 2 29 Aug 16:30:40 16:34:41 34° 72° (ENE) 16:38:43 437.375
MOZHAYETS 4 29 Aug 16:35:14 16:39:49 87° 285° (WNW) 16:44:24
NOAA 15 29 Aug 16:41:34 16:43:17 12° 62° (ENE) 16:45:00 137.62
BEESAT 29 Aug 16:44:02 16:45:27 11° 296° (WNW) 16:46:52 436.000
STARS 29 Aug 16:44:06 16:48:12 38° 99° (E) 16:52:16 437.465
CUTE-I 29 Aug 16:48:45 16:49:13 10° 62° (ENE) 16:49:43 437.470
GOMX 1 29 Aug 17:10:04 17:13:17 17° 65° (ENE) 17:16:34 467.674
LilacSat-2 29 Aug 17:20:31 17:22:43 15° 69° (ENE) 17:24:55 437.200
BEESAT 3 29 Aug 17:21:44 17:24:00 15° 50° (NE) 17:26:15 437.485
Cosmos 2491 29 Aug 17:27:20 17:35:24 44° 88° (E) 17:43:28 435.465 / 435.565
AO-7 29 Aug 17:38:14 17:42:06 14° 268° (W) 17:45:59 29.400- 29.500
NOAA 18 29 Aug 17:42:28 17:47:26 35° 69° (ENE) 17:52:22 137.9125
BRITE-PL 29 Aug 17:43:18 17:48:06 81° 77° (ENE) 17:53:21 437.365/2234.400
YUBILEINY 29 Aug 17:50:02 17:58:49 82° 266° (W) 18:07:30 435.215
KKS-1 29 Aug 17:51:44 17:54:31 17° 293° (WNW) 17:57:18 437.445
CUBESAT XI-V 29 Aug 18:01:10 18:05:53 85° 286° (WNW) 18:10:36 437.345
HORYU 2 29 Aug 18:08:18 18:11:17 18° 265° (W) 18:14:16 437.375
Cubesat XI-IV 29 Aug 18:12:02 18:17:21 73° 75° (ENE) 18:22:41 437.490
NOAA 15 29 Aug 18:17:06 18:22:20 76° 257° (WSW) 18:27:38 137.62
STARS 29 Aug 18:21:34 18:24:12 16° 293° (WNW) 18:26:49 437.465
CUTE-I 29 Aug 18:23:08 18:28:29 87° 258° (WSW) 18:33:50 437.470
Cosmos 2504 29 Aug 18:34:39 18:41:50 70° 83° (E) 18:49:01 435.465 / 435.565
DOVE 4 29 Aug 18:40:51 18:45:55 63° 75° (ENE) 18:51:10 437.250
STRAND 1 29 Aug 18:41:31 18:42:05 10° 91° (E) 18:42:39 437.568
BEESAT 2 29 Aug 18:44:25 18:48:23 59° 59° (ENE) 18:52:19 435.950
GOMX 1 29 Aug 18:45:52 18:50:47 52° 261° (W) 18:56:00 467.674
LilacSat-2 29 Aug 18:53:21 18:56:44 30° 263° (W) 19:00:08 437.200
BEESAT 3 29 Aug 18:58:06 19:01:50 41° 246° (WSW) 19:05:33 437.485
CINEMA 3 29 Aug 19:05:50 19:10:12 31° 71° (ENE) 19:14:32 145.822/145.860
HO-68 29 Aug 19:11:09 19:17:47 42° 67° (ENE) 19:24:25 435.675
CANX-2 29 Aug 19:12:40 19:16:10 26° 71° (ENE) 19:19:40 2200.000
CUTE 1.7 + AOD 2 29 Aug 19:18:18 19:21:48 26° 71° (ENE) 19:25:18 437.475
COMPASS 1 29 Aug 19:22:59 19:24:58 13° 68° (ENE) 19:26:57 437.405
NOAA 18 29 Aug 19:23:29 19:28:03 26° 263° (W) 19:32:38 137.9125
Cosmos 2491 29 Aug 19:24:32 19:32:14 35° 285° (WNW) 19:40:03 435.465 / 435.565
YUBILEINY 29 Aug 19:51:07 19:54:07 12° 283° (WNW) 19:57:07 435.215
Cubesat XI-IV 29 Aug 19:56:34 19:57:51 11° 269° (W) 19:59:09 437.490
PCSat 29 Aug 20:03:09 20:07:39 26° 55° (NE) 20:12:06 145.827
Oscar 11 29 Aug 20:14:44 20:17:29 17° 69° (ENE) 20:20:15 145.826/435.025
STRAND 1 29 Aug 20:16:35 20:21:40 72° 285° (WNW) 20:26:45 437.568
SEEDS 29 Aug 20:21:12 20:25:21 75° 259° (WSW) 20:29:31 437.485
DOVE 4 29 Aug 20:21:39 20:23:59 13° 270° (W) 20:26:20 437.250
FUNcube-1 29 Aug 20:24:48 20:28:08 21° 70° (ENE) 20:31:25 145.935
AIST 1 29 Aug 20:30:14 20:34:39 80° 264° (W) 20:38:59
Cosmos 2504 29 Aug 20:30:28 20:34:18 15° 278° (W) 20:38:09 435.465 / 435.565
UWE-3 29 Aug 20:37:13 20:41:41 52° 75° (ENE) 20:46:01 435.000/436.395/437.385
CINEMA 3 29 Aug 20:43:09 20:47:14 25° 265° (W) 20:51:20 145.822/145.860
CUBEBUG 2 29 Aug 20:44:20 20:49:03 83° 259° (W) 20:53:39 437.445
AAUSAT CUBESAT 2 29 Aug 20:45:31 20:49:36 73° 259° (WSW) 20:53:43 437.432
ZACube-1 29 Aug 20:46:40 20:50:51 41° 74° (ENE) 20:54:58 437.345
CANX-2 29 Aug 20:48:51 20:51:57 20° 265° (W) 20:55:05 2200.000
CUTE 1.7 + AOD 2 29 Aug 20:54:28 20:57:35 20° 265° (W) 21:00:41 437.475
COMPASS 1 29 Aug 20:56:16 21:00:08 39° 261° (W) 21:04:01 437.405
HO-68 29 Aug 20:59:12 21:05:29 32° 263° (W) 21:11:47 435.675
HUMSAT D 29 Aug 21:14:01 21:16:21 15° 68° (ENE) 21:18:39 437.325/437.525
AIST 2 29 Aug 21:15:43 21:19:55 79° 242° (WSW) 21:24:05 435.215
PRISM 29 Aug 21:28:18 21:32:30 77° 103° (ESE) 21:36:40 437.425
SO-50 29 Aug 21:45:04 21:48:01 16° 108° (ESE) 21:50:56 436.795
PCSat 29 Aug 21:46:07 21:51:05 37° 251° (WSW) 21:56:00 145.827
Oscar 11 29 Aug 21:49:26 21:53:20 33° 262° (W) 21:57:14 145.826/435.025
FUNcube-1 29 Aug 22:00:22 22:04:10 28° 263° (W) 22:07:57 145.935
ANTELSAT 29 Aug 22:03:11 22:05:47 16° 94° (E) 22:08:21 437.575/2403.000
DELFI C3 29 Aug 22:04:05 22:07:55 54° 260° (W) 22:11:48 145.870
GONETS M04 29 Aug 22:06:10 22:13:44 30° 73° (ENE) 22:21:13
UWE-3 29 Aug 22:16:43 22:18:19 12° 268° (W) 22:19:54 435.000/436.395/437.385
ZACube-1 29 Aug 22:24:50 22:27:15 14° 267° (W) 22:29:38 437.345
AUBIESAT-1 29 Aug 22:30:50 22:35:05 37° 68° (ENE) 22:39:21 437.475
TIGRISAT 29 Aug 22:32:20 22:36:12 33° 98° (E) 22:40:01 435.000
ESTCUBE 1 29 Aug 22:32:45 22:35:59 20° 69° (ENE) 22:39:14 437.505/2401.250
AISAT 29 Aug 22:33:22 22:34:14 10° 65° (ENE) 22:35:07 437.250
M-CUBED/EXP-1 PRIME 29 Aug 22:38:18 22:42:52 57° 70° (ENE) 22:47:29 437.505
HUMSAT D 29 Aug 22:47:48 22:51:38 36° 262° (W) 22:55:27 437.325/437.525
UNISAT 6 29 Aug 23:01:29 23:05:46 85° 102° (ESE) 23:10:01 437.425
QB50P1 29 Aug 23:07:44 23:07:58 10° 92° (E) 23:08:10 145.935-145.965
CUSAT 1 29 Aug 23:10:32 23:13:21 75° 96° (E) 23:16:51 437.405
CUBEBUG 1 29 Aug 23:12:27 23:16:26 35° 72° (ENE) 23:20:27 437.445
O/OREOS (USA 219) 29 Aug 23:15:29 23:19:54 44° 67° (ENE) 23:24:17 437.305
POPSAT HIP 1 29 Aug 23:16:14 23:18:18 13° 93° (E) 23:20:23 437.405
VELOX 1 29 Aug 23:17:01 23:20:57 32° 72° (ENE) 23:24:55 145.980
SPROUT 29 Aug 23:19:45 23:22:26 16° 68° (ENE) 23:25:08 437.525
SO-50 29 Aug 23:23:22 23:28:04 49° 302° (WNW) 23:32:46 436.795
Cosmos 2499 29 Aug 23:24:31 23:31:34 75° 83° (E) 23:38:50 435.465 / 435.565
DX 1 29 Aug 23:26:03 23:29:44 27° 70° (ENE) 23:33:25 434.975-435.025
